Location: Unspecified
(0.0000°N, 0.0000°E)
Time: 17:23:02
(UTC+00:00)

Hubble Space Telescope - Pass Details

Date: 22 January 2020
Orbit: 536 x 540 km, 28.5° (Epoch: 23 January)

Event Time Altitude Azimuth Distance (km) Brightness Sun altitude
Rises 18:46:52 0° 282° (WNW) 2,673 5.4 -8.3°
Reaches altitude 10° 18:49:20 10° 271° (W) 1,783 4.7 -8.9°
Maximum altitude 18:52:57 29° 210° (SSW) 988 2.7 -9.7°
Drops below altitude 10° 18:56:35 10° 148° (SSE) 1,785 3.3 -10.6°
Sets 18:59:03 0° 137° (SE) 2,676 4.1 -11.2°
